Location: Bremen
(53.0758°N, 8.8072°E)
Time: 13:59:54
(UTC+01:00)

ISS - Pass Details

Date: 24 January 2026
Orbit: 413 x 428 km, 51.6° (Epoch: 13 February)

Event Time Altitude Azimuth Distance (km) Brightness Sun altitude
Rises 17:53:56 0° 271° (W) 2,361 1.6 -8.9°
Reaches altitude 10° 17:56:02 10° 269° (W) 1,499 0.4 -9.2°
Maximum altitude 17:59:22 67° 187° (S) 461 -3.5 -9.7°
Enters shadow 18:02:34 11° 104° (ESE) 1,439 -1.5 -10.2°
